[[{"header":{"parameterUnit":"m.s-1","parameterCategory":1,"la1":30.2991,"la2":30.254,"lo1":-89.0895,"lo2":-89.0444,"dy":0.0017,"dx":0.0017,"nx":28,"ny":28,"refTime":"2024-10-04T03:00:00:Z","depth":0,"parameterNumber":2,"parameterNumberName":"U-component_of_WINDS"},"data":[0,0,0,0,0,0,0,0,0,0,0,0,0,0,0,0,0,0,0,0,0,0,0,0,0,0,0,0,0,0,0,0,0,0,0,0,0,0,0,0,0,0,0,0,0,0,0,0,0,0,0,0,0,0,0,0,0,0,-3.5716,-3.5718,0,-3.5848,-3.585,-3.5851,-3.5777,-3.5774,-3.577,-3.5767,-3.5902,-3.5909,-3.5916,0,0,0,0,0,0,0,0,0,0,0,0,0,-3.5403,-3.5409,-3.5716,-3.5718,-3.572,-3.5848,-3.585,-3.5852,-3.5778,-3.5773,-3.5769,-3.5765,-3.59,-3.5908,-3.5917,0,0,0,0,0,0,0,0,0,0,0,0,0,-3.5538,-3.5411,-3.5716,-3.5698,-3.5698,-3.5848,-3.585,-3.5852,-3.5779,-3.5773,-3.5768,-3.5763,-3.5897,-3.5907,-3.5918,-3.6093,0,0,-3.595,-3.5955,0,0,0,0,0,0,0,0,-3.553,-3.5549,-3.5699,-3.57,-3.57,-3.5791,-3.5789,-3.5933,-3.578,-3.5748,-3.5766,-3.576,-3.587,-3.5882,-3.5919,-3.6099,-3.6105,-3.5951,-3.5957,-3.5962,-3.5965,0,0,0,0,0,0,0,-3.5521,-3.5543,-3.5768,-3.5702,-3.5702,-3.5685,-3.5698,-3.5816,-3.5838,-3.5751,-3.5745,-3.5762,-3.5869,-3.5909,-3.5922,-3.6107,-3.5951,-3.596,-3.5967,-3.5971,-3.6442,-3.6448,0,0,0,0,0,0,-3.5512,-3.5536,-3.5764,-3.5772,-3.56,-3.5695,-3.5709,-3.5767,-3.5837,-3.5842,-3.5767,-3.5758,-3.5894,-3.5909,-3.5926,-3.6139,-3.5962,-3.5972,-3.5978,-3.6436,-3.6443,-3.645,0,0,0,0,0,0,-3.5506,-3.5533,-3.5759,-3.5653,-3.568,-3.5706,-3.5771,-3.5773,-3.5813,-3.5849,-3.5852,-3.5804,-3.589,-3.5911,-3.6053,-3.6142,-3.5976,-3.5986,-3.6428,-3.6438,-3.6447,-3.6564,0,0,0,0,0,0,-3.5497,-3.5532,-3.5597,-3.5655,-3.5686,-3.5883,-3.5777,-3.5779,-3.5831,-3.5821,-3.5884,-3.589,-3.5887,-3.6038,-3.6063,-3.6154,-3.5994,-3.6421,-3.6433,-3.6444,-3.6552,-3.6576,-3.6596,0,0,0,0,0,-3.5486,-3.5624,-3.5601,-3.5629,-3.5769,-3.5888,-3.5906,-3.59,-3.5838,-3.5906,-3.5929,-3.5888,-3.6128,-3.6053,-3.6081,-3.6176,-3.6415,-3.6429,-3.6443,-3.6542,-3.6571,-3.6596,0,0,0,0,0,0,-3.5575,-3.5631,-3.5606,-3.5766,-3.5823,-3.5875,-3.596,-3.5931,-3.6006,-3.5994,-3.5984,-3.5999,-3.6147,-3.6175,-3.609,-3.6351,-3.6262,-3.6282,-3.6328,-3.6356,-3.6378,-3.6369,-3.6003,0,0,0,0,0,-3.5614,-3.5706,-3.5749,-3.5887,-3.5916,-3.5934,-3.5985,-3.5976,-3.6035,-3.6058,-3.6092,-3.6151,-3.624,-3.6299,-3.6383,-3.6555,-3.657,-3.6635,-3.6657,-3.6675,-3.6694,-3.6792,-3.6822,-3.6496,-3.6496,-3.6495,0,0,-3.5694,-3.5736,-3.5794,-3.5906,-3.5949,-3.6046,-3.5954,-3.6059,-3.6132,-3.6074,-3.6211,-3.6238,-3.6304,-3.6463,-3.6534,-3.6491,-3.6787,-3.6693,-3.6707,-3.6716,-3.6809,-3.684,-3.6868,-3.6505,-3.6504,-3.6502,0,0,-3.589,-3.5929,-3.605,-3.6096,-3.6163,-3.6174,-3.6203,-3.6261,-3.6277,-3.6414,-3.6375,-3.6461,-3.6613,-3.6663,-3.6708,-3.6927,-3.6894,-3.6955,-3.7072,-3.7167,-3.7193,-3.7216,-3.7298,-3.7327,-3.6973,-3.6973,-3.6973,0,-3.5981,-3.6125,-3.6116,-3.6226,-3.6278,-3.6231,-3.6355,-3.64,-3.6491,-3.6528,-3.6478,-3.6672,-3.6711,-3.6884,-3.6938,-3.6975,-3.701,-3.6948,-3.719,-3.7213,-3.7234,-3.7312,-3.7343,-3.698,-3.6979,-3.6979,-3.6978,0,-3.6236,-3.6337,-3.6427,-3.6518,-3.6579,-3.6695,-3.6706,-3.6769,-3.6756,-3.6773,-3.6916,-3.6962,-3.7057,-3.7097,-3.7083,-3.7269,-3.724,-3.719,-3.7101,-3.7273,-3.7346,-3.7376,-3.6991,-3.6988,-3.6986,-3.6984,0,0,-3.6491,-3.6578,-3.6612,-3.6654,-3.6726,-3.6804,-3.692,-3.7013,-3.707,-3.7134,-3.7233,-3.7365,-3.7321,-3.7372,-3.7364,-3.7448,-3.7624,-3.7388,-3.7389,-3.7434,-3.7837,-3.7876,-3.7911,-3.7601,-3.7607,-3.7611,-3.7832,0,-3.6695,-3.6898,-3.6895,-3.7083,-3.7178,-3.7137,-3.7238,-3.7294,-3.7314,-3.7398,-3.7419,-3.7515,-3.7447,-3.7478,-3.7559,-3.7586,-3.7706,-3.7569,-3.7696,-3.7701,-3.7684,-3.7949,-3.799,-3.8196,-3.7861,-3.7865,-3.7869,0,-3.696,-3.7036,-3.7234,-3.7296,-3.7336,-3.7427,-3.7515,-3.7595,-3.7659,-3.7667,-3.7727,-3.7707,-3.7827,-3.7733,-3.79,-3.7808,-3.7859,-3.7881,-3.7889,-3.7903,-3.7797,-3.7973,-3.8262,-3.8294,-3.7913,-3.791,-3.7907,0,-3.7132,-3.7283,-3.7422,-3.7459,-3.7534,-3.76,-3.7634,-3.7692,-3.775,-3.7826,-3.7865,-3.7953,-3.8003,-3.8074,-3.808,-3.801,-3.825,-3.8155,-3.8263,-3.8264,-3.8317,-3.8314,-3.8622,-3.8346,-3.8345,-3.8344,-3.8344,0,-3.7361,-3.7485,-3.7501,-3.7587,-3.7726,-3.7722,-3.786,-3.7888,-3.7941,-3.8033,-3.8002,-3.8089,-3.809,-3.8181,-3.8186,-3.8326,-3.8348,-3.836,-3.8361,-3.8365,-3.8364,-3.8401,-3.8388,-3.8353,-3.8351,-3.8349,-3.8348,0,-3.7577,-3.7592,-3.7742,-3.7802,-3.782,-3.792,-3.7971,-3.8054,-3.8072,-3.8189,-3.8217,-3.8245,-3.835,-3.8362,-3.8484,-3.8487,-3.8658,-3.8641,-3.8637,-3.8635,-3.8745,-3.8736,-3.9089,-3.9137,-3.8826,-3.8829,-3.8831,0,-3.7724,-3.7819,-3.789,-3.795,-3.7988,-3.8085,-3.8144,-3.8144,-3.8208,-3.829,-3.8365,-3.8466,-3.8548,-3.8718,-3.875,-3.8844,-3.8832,-3.8949,-3.8846,-3.8849,-3.8839,-3.8834,-3.8846,-3.897,-3.8974,-3.8976,-3.8979,0,-3.7985,-3.7989,-3.8076,-3.8168,-3.824,-3.8311,-3.8378,-3.843,-3.8439,-3.8512,-3.8619,-3.8683,-3.8809,-3.8912,-3.9005,-3.9042,-3.9014,-3.9011,-3.9042,-3.9048,-3.9044,-3.9052,-3.8695,-3.9003,-3.9001,-3.8999,-3.8997,-3.8996,-3.8174,-3.8258,-3.8322,-3.8422,-3.8473,-3.8537,-3.862,-3.8649,-3.8738,-3.8841,-3.8836,-3.8955,-3.902,-3.9143,-3.9187,-3.9282,-3.9243,-3.9287,-3.9298,-3.931,-3.9323,-3.9026,-3.9298,-3.9298,-3.9297,-3.9296,-3.9296,0,-3.8437,-3.8477,-3.8568,-3.8665,-3.8744,-3.8709,-3.8783,-3.8852,-3.8958,-3.9021,-3.9103,-3.9228,-3.9329,-3.937,-3.9469,-3.9537,-3.9527,-3.9564,-3.956,-3.957,-3.935,-3.9315,-3.9571,-3.9571,-3.9571,-3.9571,-3.9571,-3.957,-3.8583,-3.8725,-3.8737,-3.8906,-3.8945,-3.9062,-3.9108,-3.9168,-3.9219,-3.9361,-3.9445,-3.9471,-3.9527,-3.963,-3.9722,-3.9731,-3.9771,-3.9815,-3.9819,-3.9613,-3.9585,-3.9559,-3.9526,-3.9822,-3.9823,-4.0032,-4.0034,-4.0035]},{"header":{"parameterUnit":"m.s-1","parameterCategory":1,"la1":30.2991,"la2":30.254,"lo1":-89.0895,"lo2":-89.0444,"dy":0.0017,"dx":0.0017,"nx":28,"ny":28,"refTime":"2024-10-04T03:00:00:Z","depth":0,"parameterNumber":3,"parameterNumberName":"V-component_of_WINDS"},"data":[0,0,0,0,0,0,0,0,0,0,0,0,0,0,0,0,0,0,0,0,0,0,0,0,0,0,0,0,0,0,0,0,0,0,0,0,0,0,0,0,0,0,0,0,0,0,0,0,0,0,0,0,0,0,0,0,0,0,-2.781,-2.7809,0,-2.7734,-2.7733,-2.7732,-2.7706,-2.7706,-2.7707,-2.7707,-2.7623,-2.762,-2.7618,0,0,0,0,0,0,0,0,0,0,0,0,0,-2.7925,-2.7923,-2.781,-2.7809,-2.7808,-2.7734,-2.7733,-2.7732,-2.7706,-2.7706,-2.7707,-2.7707,-2.7624,-2.7621,-2.7618,0,0,0,0,0,0,0,0,0,0,0,0,0,-2.7864,-2.7922,-2.781,-2.7786,-2.7783,-2.7734,-2.7733,-2.7732,-2.7706,-2.7706,-2.7707,-2.7707,-2.7625,-2.7621,-2.7617,-2.7584,0,0,-2.7606,-2.7604,0,0,0,0,0,0,0,0,-2.7868,-2.786,-2.7791,-2.7788,-2.7785,-2.773,-2.7743,-2.7682,-2.7706,-2.7735,-2.7707,-2.7708,-2.7658,-2.7651,-2.7636,-2.758,-2.7577,-2.7605,-2.7603,-2.7601,-2.76,0,0,0,0,0,0,0,-2.7872,-2.7863,-2.778,-2.779,-2.7786,-2.7777,-2.7769,-2.7731,-2.7694,-2.7733,-2.7731,-2.7722,-2.7656,-2.764,-2.7634,-2.7576,-2.7605,-2.7602,-2.76,-2.7598,-2.7486,-2.7485,0,0,0,0,0,0,-2.7881,-2.7867,-2.7782,-2.7777,-2.7828,-2.7775,-2.7766,-2.7747,-2.7695,-2.7688,-2.7722,-2.7721,-2.7646,-2.7638,-2.7631,-2.7586,-2.7601,-2.7598,-2.7596,-2.7487,-2.7486,-2.7485,0,0,0,0,0,0,-2.7884,-2.7874,-2.7785,-2.7822,-2.781,-2.7772,-2.7751,-2.7745,-2.7729,-2.7687,-2.768,-2.7712,-2.7646,-2.7636,-2.7596,-2.7583,-2.7596,-2.7593,-2.7487,-2.7486,-2.7485,-2.7499,0,0,0,0,0,0,-2.7887,-2.7875,-2.7864,-2.7822,-2.7808,-2.7754,-2.7751,-2.7743,-2.7723,-2.7721,-2.7676,-2.7669,-2.7645,-2.7602,-2.7592,-2.7578,-2.759,-2.7488,-2.7487,-2.7486,-2.75,-2.7499,-2.7498,0,0,0,0,0,-2.7892,-2.787,-2.7864,-2.7854,-2.7794,-2.7753,-2.7745,-2.7721,-2.7722,-2.7709,-2.7682,-2.767,-2.7587,-2.7598,-2.7587,-2.7572,-2.7489,-2.7487,-2.7486,-2.75,-2.7499,-2.7498,0,0,0,0,0,0,-2.791,-2.7864,-2.7857,-2.7822,-2.7792,-2.7749,-2.7733,-2.7721,-2.7689,-2.7688,-2.7657,-2.7647,-2.7609,-2.7586,-2.76,-2.7535,-2.7537,-2.7533,-2.7552,-2.755,-2.7549,-2.7555,-2.7587,0,0,0,0,0,-2.7911,-2.7885,-2.7845,-2.7817,-2.7803,-2.7771,-2.7752,-2.7736,-2.7703,-2.7689,-2.7659,-2.7626,-2.7592,-2.757,-2.7536,-2.7497,-2.7485,-2.7481,-2.748,-2.7479,-2.7476,-2.745,-2.7447,-2.748,-2.748,-2.748,0,0,-2.7911,-2.7883,-2.7867,-2.7821,-2.7796,-2.7766,-2.776,-2.773,-2.7706,-2.7684,-2.7644,-2.7621,-2.7581,-2.7541,-2.7521,-2.7521,-2.7464,-2.7477,-2.7477,-2.7474,-2.7448,-2.7445,-2.7442,-2.7479,-2.7479,-2.7479,0,0,-2.7896,-2.7873,-2.7847,-2.7822,-2.7785,-2.7763,-2.7756,-2.7715,-2.7699,-2.7659,-2.7641,-2.7612,-2.7555,-2.7526,-2.7505,-2.7477,-2.7463,-2.7467,-2.7462,-2.7437,-2.7434,-2.7432,-2.7419,-2.7415,-2.7464,-2.7464,-2.7464,0,-2.79,-2.7857,-2.7834,-2.7804,-2.7783,-2.7763,-2.7734,-2.7711,-2.7663,-2.7648,-2.7649,-2.7575,-2.7547,-2.7498,-2.7491,-2.7475,-2.7464,-2.7471,-2.7437,-2.7434,-2.7431,-2.7419,-2.7415,-2.7464,-2.7464,-2.7464,-2.7464,0,-2.7863,-2.7833,-2.7816,-2.7773,-2.7749,-2.772,-2.769,-2.7669,-2.7654,-2.7631,-2.7589,-2.7555,-2.7513,-2.75,-2.7485,-2.7448,-2.7448,-2.7444,-2.7444,-2.7429,-2.7417,-2.7412,-2.7465,-2.7465,-2.7464,-2.7464,0,0,-2.7858,-2.7802,-2.7795,-2.7774,-2.7731,-2.7706,-2.7675,-2.7636,-2.7616,-2.7584,-2.7555,-2.7506,-2.7501,-2.7476,-2.7457,-2.7436,-2.7413,-2.7433,-2.7431,-2.7428,-2.7366,-2.7369,-2.7364,-2.7404,-2.7403,-2.7402,-2.7368,0,-2.7836,-2.7781,-2.7759,-2.7713,-2.7684,-2.7664,-2.7636,-2.7604,-2.7582,-2.7551,-2.7525,-2.749,-2.7487,-2.7472,-2.745,-2.742,-2.7399,-2.7423,-2.7373,-2.7372,-2.7382,-2.7358,-2.7361,-2.7331,-2.7364,-2.7363,-2.7362,0,-2.7803,-2.7771,-2.7724,-2.7682,-2.7669,-2.7645,-2.7605,-2.7577,-2.754,-2.7525,-2.7497,-2.7479,-2.7441,-2.7446,-2.7392,-2.7408,-2.7387,-2.7369,-2.7367,-2.736,-2.7365,-2.7348,-2.7321,-2.7315,-2.7355,-2.7356,-2.7356,0,-2.7801,-2.7747,-2.7711,-2.7694,-2.7645,-2.7628,-2.7606,-2.757,-2.7546,-2.7511,-2.7495,-2.7456,-2.7433,-2.7402,-2.7372,-2.7378,-2.732,-2.7323,-2.7304,-2.7304,-2.7291,-2.7292,-2.7258,-2.7281,-2.7281,-2.7281,-2.7281,0,-2.7778,-2.7749,-2.771,-2.7687,-2.7653,-2.7626,-2.7592,-2.7568,-2.7535,-2.7505,-2.7485,-2.7457,-2.7421,-2.7387,-2.7364,-2.7321,-2.7312,-2.7296,-2.729,-2.7297,-2.7299,-2.7281,-2.7281,-2.728,-2.728,-2.728,-2.7281,0,-2.777,-2.7743,-2.7702,-2.7659,-2.7647,-2.7624,-2.7585,-2.7561,-2.7537,-2.7499,-2.7489,-2.745,-2.7409,-2.7377,-2.7324,-2.7308,-2.7262,-2.7256,-2.7275,-2.7271,-2.7253,-2.7254,-2.7205,-2.7196,-2.7227,-2.7227,-2.7227,0,-2.7757,-2.7734,-2.7688,-2.7668,-2.7647,-2.7614,-2.7591,-2.7562,-2.7537,-2.7492,-2.7472,-2.7431,-2.7395,-2.733,-2.7296,-2.7254,-2.7245,-2.7231,-2.7239,-2.7245,-2.7242,-2.7242,-2.7238,-2.7229,-2.7229,-2.7229,-2.7229,0,-2.7734,-2.7722,-2.769,-2.7652,-2.7625,-2.7594,-2.7562,-2.7545,-2.751,-2.7483,-2.7442,-2.7415,-2.736,-2.7317,-2.7271,-2.7245,-2.723,-2.7227,-2.722,-2.7226,-2.7236,-2.7227,-2.727,-2.7228,-2.7228,-2.7228,-2.7228,-2.7228,-2.7722,-2.77,-2.7664,-2.7628,-2.7601,-2.7571,-2.7545,-2.7518,-2.7484,-2.7438,-2.7423,-2.7379,-2.7339,-2.7276,-2.725,-2.7213,-2.7212,-2.7203,-2.72,-2.7197,-2.7196,-2.7244,-2.7205,-2.7205,-2.7205,-2.7205,-2.7205,0,-2.7696,-2.7672,-2.7639,-2.7595,-2.7566,-2.7557,-2.752,-2.7495,-2.7458,-2.7423,-2.7389,-2.7339,-2.7297,-2.7259,-2.7214,-2.7192,-2.7183,-2.7181,-2.7181,-2.7174,-2.7201,-2.7211,-2.7188,-2.7188,-2.7188,-2.7188,-2.7188,-2.7188,-2.768,-2.7641,-2.7623,-2.757,-2.7544,-2.7503,-2.7483,-2.7453,-2.7425,-2.7372,-2.7337,-2.7313,-2.7275,-2.7227,-2.7187,-2.7176,-2.7159,-2.7158,-2.7146,-2.7171,-2.7173,-2.7175,-2.7184,-2.7156,-2.7156,-2.7121,-2.7121,-2.7121]}]]